Weather History for Puyallup, WA

Change the Weather History Date:

Friday, July 19, 2013

  Actual Average (KTCM) Record (KTCM)
Temperature  
Mean Temperature 65 °F -  
Max Temperature 80 °F 75 °F 95 °F (1988)
Min Temperature 50 °F 52 °F 44 °F (1962)
Growing Degree Days 15 (Base 50)    
Moisture  
Dew Point 56 °F    
Average Humidity 80    
Maximum Humidity 100    
Minimum Humidity 48    
Precipitation  
Precipitation 0.00 in - - ()
Sea Level Pressure  
Sea Level Pressure 30.13 in    
Wind  
Wind Speed 0 mph (NNW)    
Max Wind Speed 6 mph    
Max Gust Speed -    
Visibility 9 miles    
Events Fog    
Averages and records for this station are not official NWS values.
T = Trace of Precipitation, MM = Missing Value Source: NWS Daily Summary

Daily Weather History Graph

Daily Weather History Graph

Search for Another Location

Airport:

Trip Planner

Search our weather history database for the weather conditions in past years. The results will help you decide how hot, cold, wet, or windy it might be!

Date:

Astronomy

Jul. 19, 2013 Rise Set
Actual Time 5:33 AM PDT 8:56 PM PDT
Civil Twilight 4:55 AM PDT 9:34 PM PDT
Nautical Twilight 4:06 AM PDT 10:23 PM PDT
Astronomical Twilight 3:02 AM PDT 11:26 PM PDT
Moon 6:04 PM PDT (7/19) 2:20 AM PDT (7/19)
Length of Visible Light 16h 38m
Length of Day
15h 23m
Waxing Gibbous, 87% of the Moon is Illuminated
Jul 19
Waxing Gibbous
Jul 22
Full
Jul 29
Last Quarter
Aug 6
New
Aug 14
First Quarter

Hourly Weather History & Observations

Time (PDT) Temp. Heat Index Dew Point Humidity Pressure Visibility Wind Dir Wind Speed Gust Speed Precip Events Conditions
12:15 AM 57.2 °F - 57.2 °F 100% 30.16 in 10.0 mi Calm Calm - N/A   Overcast
12:35 AM 55.4 °F - 55.4 °F 100% 30.16 in 10.0 mi Calm Calm - N/A   Overcast
12:55 AM 55.4 °F - 55.4 °F 100% 30.16 in 10.0 mi Calm Calm - N/A   Mostly Cloudy
1:15 AM 53.6 °F - 53.6 °F 100% 30.16 in 10.0 mi Calm Calm - N/A   Mostly Cloudy
1:35 AM 55.4 °F - 55.4 °F 100% 30.15 in 10.0 mi Calm Calm - N/A   Partly Cloudy
1:55 AM 55.4 °F - 55.4 °F 100% 30.16 in 10.0 mi Calm Calm - N/A   Partly Cloudy
2:15 AM 53.6 °F - 53.6 °F 100% 30.16 in 10.0 mi Calm Calm - N/A   Partly Cloudy
2:35 AM 53.6 °F - 53.6 °F 100% 30.16 in 9.0 mi Calm Calm - N/A   Scattered Clouds
2:55 AM 51.8 °F - 51.8 °F 100% 30.16 in 10.0 mi Calm Calm - N/A   Mostly Cloudy
3:15 AM 51.8 °F - 51.8 °F 100% 30.16 in 5.0 mi Calm Calm - N/A   Overcast
3:35 AM 51.8 °F - 51.8 °F 100% 30.17 in 8.0 mi Calm Calm - N/A   Mostly Cloudy
3:55 AM 51.8 °F - 51.8 °F 100% 30.16 in 2.0 mi Calm Calm - N/A   Mostly Cloudy
4:15 AM 51.8 °F - 51.8 °F 100% 30.16 in 1.0 mi Calm Calm - N/A   Overcast
4:35 AM 51.8 °F - 51.8 °F 100% 30.17 in 5.0 mi Calm Calm - N/A   Mostly Cloudy
4:55 AM 51.8 °F - 51.8 °F 100% 30.17 in 10.0 mi Calm Calm - N/A   Overcast
5:15 AM 50.0 °F - 50.0 °F 100% 30.17 in 2.5 mi Calm Calm - N/A   Overcast
5:35 AM 50.0 °F - 50.0 °F 100% 30.18 in 0.5 mi Calm Calm - N/A Fog Fog
5:55 AM 50.0 °F - 50.0 °F 100% 30.18 in 2.0 mi Calm Calm - N/A   Mostly Cloudy
6:15 AM 50.0 °F - 50.0 °F 100% 30.18 in 5.0 mi Calm Calm - N/A   Mostly Cloudy
6:35 AM 50.0 °F - 50.0 °F 100% 30.18 in 3.0 mi Calm Calm - N/A   Mostly Cloudy
6:55 AM 50.0 °F - 50.0 °F 100% 30.18 in 6.0 mi Calm Calm - N/A   Mostly Cloudy
7:15 AM 53.6 °F - 53.6 °F 100% 30.18 in 10.0 mi Calm Calm - N/A   Mostly Cloudy
7:35 AM 53.6 °F - 53.6 °F 100% 30.19 in 10.0 mi Calm Calm - N/A   Mostly Cloudy
7:55 AM 55.4 °F - 55.4 °F 100% 30.19 in 10.0 mi Calm Calm - N/A   Mostly Cloudy
8:15 AM 57.2 °F - 55.4 °F 94% 30.19 in 10.0 mi Calm Calm - N/A   Mostly Cloudy
8:35 AM 57.2 °F - 55.4 °F 94% 30.19 in 10.0 mi Calm Calm - N/A   Mostly Cloudy
8:55 AM 57.2 °F - 55.4 °F 94% 30.19 in 10.0 mi Calm Calm - N/A   Mostly Cloudy
9:15 AM 59.0 °F - 55.4 °F 88% 30.18 in 10.0 mi Calm Calm - N/A   Mostly Cloudy
9:35 AM 59.0 °F - 55.4 °F 88% 30.18 in 10.0 mi Calm Calm - N/A   Mostly Cloudy
9:55 AM 60.8 °F - 55.4 °F 82% 30.18 in 10.0 mi Calm Calm - N/A   Mostly Cloudy
10:15 AM 60.8 °F - 57.2 °F 88% 30.18 in 10.0 mi Calm Calm - N/A   Mostly Cloudy
10:35 AM 62.6 °F - 57.2 °F 82% 30.18 in 10.0 mi Calm Calm - N/A   Mostly Cloudy
10:55 AM 64.4 °F - 57.2 °F 77% 30.18 in 10.0 mi Calm Calm - N/A   Mostly Cloudy
11:15 AM 66.2 °F - 57.2 °F 73% 30.18 in 10.0 mi Calm Calm - N/A   Mostly Cloudy
11:35 AM 66.2 °F - 57.2 °F 73% 30.17 in 10.0 mi Calm Calm - N/A   Scattered Clouds
11:55 AM 68.0 °F - 57.2 °F 68% 30.17 in 10.0 mi Calm Calm - N/A   Scattered Clouds
12:15 PM 68.0 °F - 57.2 °F 68% 30.17 in 10.0 mi Calm Calm - N/A   Mostly Cloudy
12:35 PM 71.6 °F - 59.0 °F 64% 30.16 in 10.0 mi Calm Calm - N/A   Mostly Cloudy
12:55 PM 71.6 °F - 59.0 °F 64% 30.15 in 10.0 mi Calm Calm - N/A   Overcast
1:15 PM 71.6 °F - 59.0 °F 64% 30.14 in 10.0 mi Calm Calm - N/A   Mostly Cloudy
1:35 PM 73.4 °F - 59.0 °F 61% 30.14 in 10.0 mi Calm Calm - N/A   Mostly Cloudy
1:55 PM 75.2 °F - 59.0 °F 57% 30.13 in 10.0 mi Calm Calm - N/A   Partly Cloudy
2:15 PM 75.2 °F - 59.0 °F 57% 30.13 in 10.0 mi Calm Calm - N/A   Partly Cloudy
2:35 PM 77.0 °F - 59.0 °F 54% 30.12 in 10.0 mi Calm Calm - N/A   Scattered Clouds
2:55 PM 77.0 °F - 59.0 °F 54% 30.12 in 10.0 mi Calm Calm - N/A   Partly Cloudy
3:15 PM 77.0 °F - 57.2 °F 50% 30.12 in 10.0 mi Calm Calm - N/A   Partly Cloudy
3:35 PM 77.0 °F - 59.0 °F 54% 30.11 in 10.0 mi Calm Calm - N/A   Scattered Clouds
3:55 PM 77.0 °F - 59.0 °F 54% 30.11 in 10.0 mi NW 4.6 mph - N/A   Partly Cloudy
4:15 PM 77.0 °F - 59.0 °F 54% 30.10 in 10.0 mi Calm Calm - N/A   Clear
4:35 PM 78.8 °F - 59.0 °F 51% 30.10 in 10.0 mi North 5.8 mph - N/A   Clear
4:55 PM 78.8 °F - 59.0 °F 51% 30.09 in 10.0 mi Calm Calm - N/A   Clear
5:15 PM 78.8 °F - 59.0 °F 51% 30.09 in 10.0 mi Calm Calm - N/A   Clear
5:35 PM 78.8 °F - 59.0 °F 51% 30.08 in 10.0 mi Calm Calm - N/A   Partly Cloudy
5:55 PM 80.6 °F 81.1 °F 59.0 °F 48% 30.08 in 10.0 mi North 4.6 mph - N/A   Partly Cloudy
6:15 PM 78.8 °F - 59.0 °F 51% 30.07 in 10.0 mi Calm Calm - N/A   Clear
6:35 PM 78.8 °F - 59.0 °F 51% 30.07 in 10.0 mi Calm Calm - N/A   Clear
6:55 PM 77.0 °F - 57.2 °F 50% 30.07 in 10.0 mi Calm Calm - N/A   Clear
7:15 PM 77.0 °F - 57.2 °F 50% 30.07 in 10.0 mi NW 3.5 mph - N/A   Clear
7:35 PM 75.2 °F - 59.0 °F 57% 30.07 in 10.0 mi Calm Calm - N/A   Partly Cloudy
7:55 PM 75.2 °F - 59.0 °F 57% 30.06 in 10.0 mi NNW 4.6 mph - N/A   Scattered Clouds
8:15 PM 73.4 °F - 59.0 °F 61% 30.06 in 10.0 mi Calm Calm - N/A   Mostly Cloudy
8:35 PM 71.6 °F - 59.0 °F 64% 30.06 in 10.0 mi Calm Calm - N/A   Mostly Cloudy
8:55 PM 69.8 °F - 59.0 °F 68% 30.07 in 10.0 mi Calm Calm - N/A   Mostly Cloudy
9:15 PM 66.2 °F - 60.8 °F 83% 30.07 in 10.0 mi Calm Calm - N/A   Mostly Cloudy
9:35 PM 64.4 °F - 60.8 °F 88% 30.08 in 10.0 mi Calm Calm - N/A   Mostly Cloudy
9:55 PM 64.4 °F - 60.8 °F 88% 30.08 in 10.0 mi Calm Calm - N/A   Overcast
10:15 PM 62.6 °F - 60.8 °F 94% 30.08 in 10.0 mi Calm Calm - N/A   Mostly Cloudy
10:35 PM 62.6 °F - 60.8 °F 94% 30.09 in 10.0 mi Calm Calm - N/A   Mostly Cloudy
10:55 PM 60.8 °F - 59.0 °F 94% 30.08 in 10.0 mi Calm Calm - N/A   Mostly Cloudy
11:15 PM 62.6 °F - 59.0 °F 88% 30.08 in 10.0 mi Calm Calm - N/A   Scattered Clouds
11:35 PM 60.8 °F - 59.0 °F 94% 30.08 in 10.0 mi Calm Calm - N/A   Partly Cloudy
11:55 PM 57.2 °F - 57.2 °F 100% 30.08 in 10.0 mi Calm Calm - N/A   Mostly Cloudy